Regional Weather Roundup
Issued by NWS

Home | Current Version | Previous Version | Text Only | Print | Product List | Glossary On
Versions: 1 2 3 4 5 6 7 8 9 10 11 12 13 14 15 16 17 18 19 20 21 22 23 24 25 26 27 28 29 30 31 32 33 34 35 36 37 38 39 40 41 42 43 44 45 46 47 48 49 50
000
ASUS43 KLMK 172302
RWRKY
KENTUCKY REGIONAL WEATHER ROUNDUP
NATIONAL WEATHER SERVICE LOUISVILLE KY
600 PM EST TUE JAN 17 2017

NOTE "FAIR" INDICATES FEW OR NO CLOUDS BELOW 12,000 FEET
WITH NO SIGNIFICANT WEATHER AND/OR OBSTRUCTIONS TO VISIBILITY.

KYZ001>023-026-027-061>063-070>075-180000-
WESTERN AND SOUTH CENTRAL KENTUCKY

CITY           SKY/WX    TMP DP  RH WIND       PRES   REMARKS
PADUCAH        CLOUDY    46  39  76 W9        30.12R
HENDERSON      CLOUDY    45  37  76 W10       30.10R
OWENSBORO      CLOUDY    47  42  83 W12       30.09R
HOPKINSVILLE   CLOUDY    53  46  75 W14       30.08R
BOWLING GREEN  PTCLDY    58  46  64 W13       30.06R
GLASGOW        NOT AVBL
$$

KYZ024-025-028>034-038-045-046-053-180000-
NORTH CENTRAL KENTUCKY

CITY           SKY/WX    TMP DP  RH WIND       PRES   REMARKS
LOUISVILLE/SDF CLOUDY    51  43  74 W13       30.03R
LOUISVILLE/LOU CLOUDY    52  43  71 W13       30.04R
FORT KNOX      MOCLDY    49  44  83 W9        30.03R
$$

KYZ035>037-039>044-047>052-055>060-089>105-180000-
NORTHEAST KENTUCKY

CITY           SKY/WX    TMP DP  RH WIND       PRES   REMARKS
LEXINGTON      MOCLDY    58  46  64 W14       29.99R
COVINGTON      CLOUDY    50  44  80 W18       29.98R
FRANKFORT      CLOUDY    54  45  71 W9        30.00R
$$

KYZ054-064>069-076>088-106>120-180000-
SOUTHEAST KENTUCKY

CITY           SKY/WX    TMP DP  RH WIND       PRES   REMARKS
JACKSON        CLOUDY    61  56  83 SW6       29.98R
LONDON         LGT RAIN  59  57  93 W7        30.02R FOG
SOMERSET       NOT AVBL
MIDDLESBORO    LGT RAIN  62  59  90 SW6       30.03R
MONTICELLO     LGT RAIN  60  58  92 W17       30.05R
$$





USA.gov is the U.S. government's official web portal to all federal, state and local government web resources and services.